Regional Weather Roundup
Issued by NWS Cleveland, OH

Home | Current Version | Previous Version | Text Only | Print | Product List | Glossary Off
Versions: 1 2 3 4 5 6 7 8 9 10 11 12 13 14 15 16 17 18 19 20 21 22 23 24 25 26 27 28 29 30 31 32 33 34 35 36 37 38 39 40 41 42 43 44 45 46 47 48 49 50

969
ASUS41 KCLE 250602
RWRCLE
OHIO REGIONAL WEATHER ROUNDUP
NATIONAL WEATHER SERVICE CLEVELAND, OH
200 AM EDT THU MAY 25 2017

NOTE: "FAIR" INDICATES FEW OR NO CLOUDS BELOW 12,000 FEET WITH NO
SIGNIFICANT WEATHER AND/OR OBSTRUCTIONS TO VISIBILITY.

OHZ001>008-015>018-024>027-034-035-043-044-250700-
   NORTHWEST OHIO

CITY           SKY/WX    TMP DP  RH WIND       PRES   REMARKS
DEFIANCE       CLOUDY    59  58  96 E10       29.40F
FINDLAY        CLOUDY    64  58  80 E8        29.38F
TOLEDO EXPRESS LGT RAIN  59  59 100 NE13      29.42F
TOLEDO EXEC    CLOUDY    61  59  93 NE12      29.43F
LIMA           CLOUDY    61  59  93 SE8       29.37S
$$

OHZ009>014-019>023-028>033-038-089-250700-
   NORTHEAST OHIO

CITY           SKY/WX    TMP DP  RH WIND       PRES   REMARKS
CLE-HOPKINS    CLOUDY    63  56  78 SE10      29.48F
CLE-LAKEFRONT  CLOUDY    62  55  77 SE9       29.46S
CUY CO. ARPT   NOT AVBL
LORAIN-ELYRIA    N/A    N/A N/A N/A MISG      29.45F
ASHTABULA      CLOUDY    59  56  89 SE10G17   29.51F
AKRON-CANTON   CLOUDY    60  54  80 SE9       29.48S
WOOSTER        CLOUDY    59  56  89 SE8       29.46F
MANSFIELD      CLOUDY    59  58  96 E9        29.43S
YOUNGSTOWN     CLOUDY    58  54  86 SE14      29.51F
$$

OHZ042-051>053-060>062-070>072-077>081-250700-
  SOUTHWEST OHIO

CITY           SKY/WX    TMP DP  RH WIND       PRES   REMARKS
CINC-COVINGTON LGT RAIN  59  58  96 SW6       29.40S
CINC-LUNKEN    LGT RAIN  60  60 100 SW3       29.40R FOG
HAMILTON       LGT RAIN  60  24  25 W6        29.39S
DAYTON         CLOUDY    59  59 100 S7        29.37S
WRIGHT-PAT AFB NOT AVBL
DAYTON GENERAL CLOUDY    59  58  96 SW5       29.36S
WILMINGTON     CLOUDY    59  59 100 SW9       29.37S
$$

OHZ036-037-039>041-045>050-054>059-063>069-073>076-082>088-250700-
  CENTRAL AND SOUTHEAST OHIO

CITY           SKY/WX    TMP DP  RH WIND       PRES   REMARKS
COLUMBUS       CLOUDY    64  59  83 SE12G21   29.39S
OSU AIRPORT    CLOUDY    64  60  87 SE12      29.38F
BOLTON FIELD   NOT AVBL
RICKENBACK AFB NOT AVBL
NEWARK         CLOUDY    63  58  83 SE10      29.40F
MARION         CLOUDY    62  58  86 SE13      29.40F
LANCASTER      MOCLDY    63  58  83 S10       29.40S
ZANESVILLE     LGT RAIN  61  58  90 SE12      29.43F
NEW PHILLY     NOT AVBL
$$




USA.gov is the U.S. government's official web portal to all federal, state and local government web resources and services.